This is the latest recevied weather packets stored in our database for station/object AE6BH. If no packets are shown the sender has not sent any weather packets the latest 10 day(s).
| Time | Temp. | Humidity | Pressure | Rain* | Wind** | Luminosity | Snow |
|---|---|---|---|---|---|---|---|
| 1778288451 | 21.67° C | 59% | 1014 hPa | 0 mm | - | 38 W/m² | - |
| 1778288149 | 22.22° C | 57% | 1013.8 hPa | 0 mm | - | 113 W/m² | - |
| 1778287844 | 21.67° C | 57% | 1013.7 hPa | 0 mm | - | 119 W/m² | - |
| 1778287541 | 21.67° C | 57% | 1013.8 hPa | 0 mm | - | 42 W/m² | - |
| 1778287238 | 21.67° C | 57% | 1013.9 hPa | 0 mm | - | 47 W/m² | - |
| 1778286936 | 21.67° C | 58% | 1013.6 hPa | 0 mm | - | 52 W/m² | - |
| 1778286633 | 21.67° C | 58% | 1013.8 hPa | 0 mm | - | 60 W/m² | - |
| 1778286331 | 21.67° C | 58% | 1013.8 hPa | 0 mm | - | 46 W/m² | - |
| 1778286028 | 21.67° C | 58% | 1013.9 hPa | 0 mm | - | 44 W/m² | - |
| 1778285726 | 21.67° C | 58% | 1013.9 hPa | 0 mm | - | 45 W/m² | - |
| 1778285421 | 22.22° C | 58% | 1013.9 hPa | 0 mm | - | 70 W/m² | - |
| 1778285120 | 22.22° C | 58% | 1013.9 hPa | 0 mm | - | 83 W/m² | - |
| 1778284816 | 22.22° C | 57% | 1014 hPa | 0 mm | - | 66 W/m² | - |
| 1778284514 | 21.67° C | 58% | 1013.9 hPa | 0 mm | - | 68 W/m² | - |
| 1778284209 | 21.67° C | 58% | 1014.1 hPa | 0 mm | - | 86 W/m² | - |
| 1778283907 | 21.67° C | 58% | 1014.1 hPa | 0 mm | - | 110 W/m² | - |
| 1778283604 | 21.67° C | 58% | 1014.1 hPa | 0 mm | - | 59 W/m² | - |
| 1778283304 | 22.22° C | 57% | 1014 hPa | 0 mm | - | 63 W/m² | - |
| 1778283000 | 22.22° C | 58% | 1014 hPa | 0 mm | - | 74 W/m² | - |
| 1778282697 | 22.78° C | 56% | 1014.1 hPa | 0 mm | - | 117 W/m² | - |
| 1778282394 | 22.78° C | 56% | 1014.2 hPa | 0 mm | - | 81 W/m² | - |
| 1778282091 | 22.22° C | 57% | 1014.3 hPa | 0 mm | - | 123 W/m² | - |
| 1778281788 | 22.22° C | 56% | 1014.1 hPa | 0 mm | - | 72 W/m² | - |
| 1778281485 | 22.78° C | 55% | 1014.1 hPa | 0 mm | - | 119 W/m² | - |
| 1778281182 | 23.33° C | 55% | 1014.3 hPa | 0 mm | - | 69 W/m² | - |
* Rain latest hour (hover to see other rain measurements)
** Current wind speed in m/s (hover to see current wind gust speed)